Regional Weather Roundup
Issued by NWS Glasgow, MT

Home | Current Version | Previous Version | Text Only | Print | Product List | Glossary On
Versions: 1 2 3 4 5 6 7 8 9 10 11 12 13 14 15 16 17 18 19 20 21 22 23 24 25 26 27
000
ASUS45 KGGW 261815
RWRGGW
HOURLY REGIONAL WEATHER ROUNDUP FOR NORTHEAST MONTANA
NATIONAL WEATHER SERVICE GLASGOW MONTANA
1200 PM MDT TUE JUL 26 2016

NOTE: "FAIR" INDICATES FEW OR NO CLOUDS BELOW 12,000 FEET WITH NO
SIGNIFICANT WEATHER AND/OR OBSTRUCTIONS TO VISISBILITY.

NORTHEAST MONTANA


CITY           SKY/WX    TMP DP  RH WIND       PRES   REMARKS
GLASGOW        CLOUDY    76  62  62 NE14      30.08R
6HR MIN TEMP:  64; 6HR MAX TEMP:  80;

PLENTYWOOD       N/A     72  54  53 NE12        N/A
WOLF POINT     CLOUDY    81  60  48 E12       30.08S
JORDAN           N/A     83  53  35 SE9G23    30.07S
WINNETT          N/A     82  47  29 NE3G12      N/A
SIDNEY         CLOUDY    72  63  73 NE6       30.09R
GLENDIVE       PTSUNNY   77  60  55 NE12      30.08R
MALTA            N/A     80  64  58 NE9G17      N/A
SCOBEY           N/A     74  53  48 NE6       30.12R
OPHEIM           N/A     70  52  52 E13       29.86F

FORT PECK REPORTS


CITY           SKY/WX    TMP DP  RH WIND       PRES   REMARKS
FORT PECK        N/A     77  61  57 SE10G18     N/A
THE PINES        N/A     78  60  53 NE3         N/A

SOUTHEAST MONTANA


CITY           SKY/WX    TMP DP  RH WIND       PRES   REMARKS
BILLINGS       MOSUNNY   83  47  28 SE6       30.09F
MILES CITY     SUNNY     83  53  35 VRB3      30.05F
BAKER          MOSUNNY   79  57  46 E10       30.08S
LIVINGSTON     SUNNY     85  45  24 CALM      30.13F

CENTRAL MONTANA


CITY           SKY/WX    TMP DP  RH WIND       PRES   REMARKS
HAVRE          SUNNY     81  59  47 E13       30.05S
LEWISTOWN      SUNNY     79  52  38 NW3       30.13S
GREAT FALLS    SUNNY     80  49  33 E7        30.10S
CUT BANK       SUNNY     80  55  42 S9        30.09F
HELENA         SUNNY     80  50  34 NE7       30.10F
BUTTE          SUNNY     79  34  19 VRB5      30.20F
BOZEMAN        SUNNY     82  49  31 VRB5      30.15F

WESTERN MONTANA


CITY           SKY/WX    TMP DP  RH WIND       PRES   REMARKS
MISSOULA       MOSUNNY   80  45  28 CALM      30.09F
KALISPELL      NOT AVBL

NORTH DAKOTA


CITY           SKY/WX    TMP DP  RH WIND       PRES   REMARKS
WILLISTON      CLOUDY    78  61  55 N12       30.09R
DICKINSON      CLOUDY    69  64  84 N10       30.04R
MINOT          CLOUDY    82  64  54 NW5       30.05S
BISMARCK       LGT RAIN  73  68  84 N13       30.01F

SOUTHERN SASKATCHEWAN


CITY           SKY/WX    TMP DP  RH WIND       PRES   REMARKS
REGINA         PTSUNNY   73  55  53 NE3       30.12R
MOOSE JAW      PTSUNNY   75  61  60 E5        30.13S
ESTEVAN        PTSUNNY   75  55  50 N7        30.10R
SWIFT CURRENT  PTSUNNY   72  59  64 SE10      30.13R





USA.gov is the U.S. government's official web portal to all federal, state and local government web resources and services.